Temperature
19 18 18 18 18 18 18 18 18 18 18 18 18 18 18 18 18 18 18 18 18 18 18 18 17 17 17 17 17 17 17 17 17 16 16 16 16 16 16 16 16 16 16
19 19 18 18 18 18 18 18 18 18 18 18 18 18 18 18 18 18 18 18 18 18 17 17 17 17 17 17 17 17 17 17 17 17 17 16 16 16 16 16 16 16 16
19 19 18 18 18 18 18 18 18 18 18 18 18 18 18 18 18 18 18 18 18 18 17 17 17 17 17 17 17 17 17 17 17 17 17 16 16 16 16 16 16 16 16
19 19 18 18 18 18 18 18 18 18 18 18 18 18 18 18 18 18 18 18 18 18 18 17 17 17 17 17 17 17 17 17 17 17 17 16 16 16 16 16 16 16 16
19 19 18 18 18 18 18 18 18 18 18 18 17 17 17 17 18 18 17 17 18 18 18 17 17 17 17 17 17 17 17 17 17 17 16 16 16 16 16 16 16 16 16
19 19 19 18 18 18 18 18 18 18 18 18 17 17 17 17 17 17 17 17 17 17 17 17 17 17 17 17 17 17 17 17 17 16 16 16 16 16 16 16 16 16 16
19 19 18 18 18 18 18 18 17 17 18 17 17 17 17 17 17 17 17 17 17 17 17 17 17 17 17 17 17 17 16 16 16 16 16 16 16 16 16 16 16 16 16
19 18 18 18 18 18 18 18 18 18 17 17 17 17 17 17 17 17 17 17 17 17 17 17 17 17 17 16 16 16 16 16 16 16 16 16 16 16 16 16 16 16 16
18 18 18 18 18 18 18 18 18 18 17 17 17 17 17 17 17 17 17 17 17 17 17 17 17 16 16 16 16 16 16 16 16 16 16 16 16 16 16 16 16 16 16
18 18 18 18 18 18 18 18 18 17 17 17 17 17 17 17 17 16 16 17 17 17 16 16 16 16 16 16 16 16 16 16 16 16 16 16 16 16 16 16 16 16 15
18 18 18 18 18 18 18 17 17 17 17 17 17 17 17 17 17 16 16 16 16 16 16 16 16 16 16 16 16 16 16 16 16 16 16 16 16 16 15 15 15 15 15
18 18 18 18 18 18 17 17 17 17 17 17 17 17 17 17 16 16 16 16 16 16 16 16 16 16 16 16 16 15 15 15 15 15 15 15 15 15 15 15 15 15 15
18 18 18 18 18 18 17 17 17 17 17 17 17 17 16 16 16 16 16 16 16 16 16 16 16 16 16 15 15 15 15 15 15 15 15 15 15 15 15 15 15 15 15
18 18 18 17 17 17 17 17 17 17 17 17 17 16 16 16 16 16 16 16 15 15 15 16 16 16 15 15 15 15 15 15 15 15 15 15 15 15 15 15 15 15 15
18 18 18 17 17 17 17 17 17 17 17 17 16 16 16 16 16 16 16 16 15 15 15 15 15 15 15 15 15 15 15 15 15 15 15 15 14 14 14 14 14 14 14
18 18 18 17 17 17 17 17 17 17 16 16 16 16 16 16 16 16 16 16 15 15 15 15 15 15 15 15 15 15 15 15 15 14 14 14 14 14 14 14 14 14 14
17 17 17 17 17 17 17 17 16 16 16 16 16 16 16 16 16 15 15 15 15 15 15 15 15 15 15 15 15 15 14 14 14 14 14 14 14 14 14 14 14 14 14
17 17 17 17 17 17 16 16 16 16 16 16 16 16 16 15 15 15 15 15 15 15 15 15 14 14 14 14 14 14 14 14 14 14 14 14 14 14 14 14 14 14 13
17 17 17 17 17 16 16 16 16 16 16 16 15 15 15 15 15 15 15 15 15 14 14 14 14 14 14 14 14 14 14 14 14 14 14 14 14 14 13 13 13 13 13
17 17 17 17 16 16 16 16 16 16 16 15 15 15 15 15 15 15 14 14 14 14 14 14 14 14 14 14 14 14 14 14 14 14 14 14 14 13 13 13 13 13 13
17 17 17 17 16 16 16 16 16 15 15 15 15 15 15 15 14 14 14 14 14 14 14 14 14 14 14 14 14 14 14 14 14 13 13 13 13 13 13 13 13 13 13
17 17 17 16 16 16 16 16 15 15 15 15 15 15 15 14 14 14 14 14 14 14 14 14 14 14 14 13 13 13 13 13 13 13 13 13 13 13 13 13 13 13 13
17 16 16 16 16 16 16 15 15 15 15 15 14 14 14 14 14 14 14 14 14 14 13 13 13 14 13 13 13 13 13 13 13 13 13 13 13 13 13 13 13 13 13
16 16 16 16 16 15 15 15 15 15 15 14 14 14 14 14 14 14 14 14 14 14 14 13 13 13 13 13 13 13 13 13 13 13 13 13 13 13 13 13 13 13 13
16 16 16 15 15 15 15 15 14 14 14 14 14 14 14 13 13 13 13 13 13 13 13 13 13 13 13 13 12 12 12 12 12 13 13 12 13 13 12 13 13 12 12
15 15 15 15 15 15 14 14 14 14 14 14 14 13 13 13 13 13 13 13 13 13 13 13 13 13 12 12 12 12 12 12 12 12 12 12 12 12 12 12 12 12 12
Wind_Speed
1 1 1 1 1 1 1 1 2 2 2 2 2 2 1 1 2 3 4 6 7 8 8 8 8 9 9 9 9 9 9 9 10 10 11 10 10 10 10 10 9 9 9
2 1 1 0 0 0 0 1 2 2 2 2 1 1 1 1 1 2 3 4 6 7 8 8 8 8 8 8 9 9 9 9 10 10 11 11 10 10 11 10 10 10 10
3 2 1 0 1 0 1 1 2 2 2 2 1 0 1 1 1 1 2 2 4 5 6 7 7 7 8 8 8 8 8 9 9 9 10 10 11 11 11 11 11 10 10
4 2 1 1 1 1 1 1 1 2 1 1 0 1 1 0 0 0 1 1 2 3 3 4 5 6 6 6 7 7 7 8 8 8 8 9 10 11 11 11 11 11 11
3 3 2 1 1 1 1 1 1 2 1 1 0 0 1 0 0 0 0 0 1 1 1 2 3 5 5 5 5 6 6 6 6 6 6 7 8 10 11 11 11 11 12
3 3 2 1 2 2 1 1 1 1 1 1 1 1 1 1 1 0 0 0 1 1 1 1 2 4 5 5 5 5 5 6 6 6 6 7 7 8 8 9 9 10 11
3 3 1 1 1 2 2 2 2 2 1 1 2 2 2 2 1 1 0 0 1 1 1 1 2 2 3 4 4 5 5 5 6 6 7 7 7 8 8 8 9 10 10
3 3 3 2 2 2 2 1 2 2 1 1 1 1 1 2 2 2 1 1 0 0 0 1 2 2 2 2 3 5 5 5 6 6 6 6 5 5 6 8 8 9 10
3 3 3 2 2 2 2 2 2 3 2 1 1 2 2 1 1 2 1 1 1 0 0 1 1 2 3 2 3 3 4 5 5 5 5 5 6 5 6 6 8 10 10
2 3 3 3 2 2 2 2 2 2 3 2 1 1 1 2 1 1 1 1 1 0 1 1 1 2 3 3 3 4 4 4 4 4 3 3 3 3 4 5 6 6 8
1 2 2 2 2 2 2 2 2 3 2 2 1 1 1 0 1 1 1 2 1 1 1 1 1 1 2 3 3 4 4 4 3 3 2 2 2 2 3 3 3 3 3
0 1 2 2 2 2 2 2 2 3 2 2 1 1 2 1 2 2 2 2 1 2 1 1 1 1 2 2 3 3 3 3 2 2 0 1 1 2 2 2 2 2 2
1 2 2 2 2 2 2 2 2 2 2 2 2 1 1 1 1 2 2 2 1 1 1 1 2 2 2 2 3 3 3 3 2 1 1 1 1 2 2 2 1 1 1
2 2 2 2 2 2 2 2 2 2 2 2 2 2 1 1 1 2 2 2 1 1 1 2 1 2 2 2 3 3 2 3 2 2 1 2 2 2 2 2 2 1 2
2 2 2 2 2 2 2 3 2 1 1 2 2 2 1 1 1 1 1 2 3 2 2 2 1 2 2 2 3 3 3 3 4 3 3 3 3 3 3 2 2 2 2
2 2 2 2 2 2 2 2 2 1 1 1 1 1 0 1 0 1 1 1 2 3 2 2 2 2 2 1 2 3 3 4 4 4 4 4 4 4 3 3 3 3 3
2 2 3 2 2 2 2 2 2 2 2 1 1 1 1 0 0 0 1 1 1 2 3 2 2 1 1 1 1 1 3 3 3 4 5 5 5 5 5 4 3 3 3
3 3 3 3 2 2 2 3 3 2 2 2 2 1 1 1 1 0 1 1 1 2 2 2 2 1 1 1 1 1 1 2 3 4 5 5 5 5 5 5 5 4 4
3 3 3 3 3 3 3 3 3 3 3 3 3 3 2 2 2 1 1 1 1 1 2 2 2 1 1 1 0 1 1 1 2 3 4 5 5 5 6 6 6 6 5
3 3 3 4 4 3 3 3 3 3 3 3 3 3 3 3 4 3 2 3 2 1 1 1 1 1 1 1 0 1 1 1 2 2 2 3 4 5 5 6 7 7 6
4 4 4 3 3 3 3 3 3 3 3 3 3 3 4 5 5 4 3 3 3 2 2 2 2 1 1 1 2 2 2 2 2 1 1 2 2 2 3 5 6 7 7
3 4 4 4 3 3 4 4 3 3 3 3 3 3 3 4 5 5 5 5 5 5 4 4 3 3 4 3 2 2 2 1 2 1 2 2 1 3 3 4 5 6 7
3 3 4 4 4 4 4 4 4 3 3 3 3 3 3 3 3 3 4 4 5 6 7 6 6 6 5 5 4 3 3 3 4 2 2 3 2 3 4 4 5 6 6
3 3 3 4 4 4 4 4 4 3 3 3 3 3 3 3 3 2 3 3 4 5 5 5 6 6 6 5 5 4 4 3 2 2 2 3 3 3 3 4 4 5 5
2 3 3 3 3 4 4 4 3 2 2 3 3 3 3 4 4 3 2 3 4 4 5 5 5 4 4 4 4 2 2 2 3 3 3 2 2 2 3 3 4 4 5
2 2 2 2 3 4 4 4 4 2 3 3 3 3 4 4 4 3 3 3 4 4 3 3 2 2 2 3 5 5 4 4 3 3 3 3 2 1 2 2 2 2 3
Wind_Direction
121 88 57 49 27 41 57 49 68 97 107 107 124 136 158 184 211 224 226 215 209 209 213 212 209 209 209 209 205 201 199 201 205 204 205 208 211 210 209 210 209 209 211
160 147 110 55 335 224 108 86 86 88 92 100 89 121 164 177 203 220 232 227 218 217 220 214 212 211 211 211 209 206 205 207 210 211 211 212 214 215 214 214 214 214 214
175 166 151 184 239 186 93 79 75 90 94 86 74 61 125 153 180 225 235 231 226 224 224 218 216 212 211 211 210 208 210 212 213 214 217 218 219 221 222 219 218 220 219
180 167 161 193 212 123 110 98 84 85 76 80 60 10 37 45 4 247 224 223 221 223 219 210 211 216 216 214 210 212 217 219 218 219 219 220 222 223 222 221 220 221 222
185 168 170 179 154 118 105 130 98 116 110 95 109 18 19 37 21 331 295 197 179 186 206 215 217 219 217 214 208 214 217 217 215 220 223 222 224 224 223 223 223 223 223
169 160 160 165 147 126 114 114 122 111 126 142 105 38 24 24 41 20 224 143 145 175 187 213 235 233 221 217 210 214 215 216 222 228 234 231 230 227 225 220 220 222 221
166 144 150 141 147 151 161 148 139 119 69 79 82 39 18 28 26 354 31 106 171 177 151 187 217 217 216 212 211 212 216 223 229 234 238 240 243 237 229 225 223 223 223
175 169 160 164 150 133 123 135 142 133 91 85 110 95 11 3 8 11 33 62 72 116 165 204 193 192 200 203 211 218 224 227 233 237 236 235 242 238 229 231 229 228 229
171 163 157 151 146 148 163 171 152 145 147 88 88 129 140 239 316 354 18 22 45 61 288 240 207 208 209 210 219 229 235 239 245 248 243 240 237 237 238 239 238 236 238
144 159 159 154 157 153 161 173 151 148 149 171 155 108 160 166 181 311 345 358 8 321 282 263 249 224 219 218 225 232 240 243 242 244 241 232 230 235 242 247 248 246 245
138 163 164 164 166 168 172 166 155 156 161 171 174 157 146 133 171 179 265 310 347 334 312 287 270 242 229 228 235 236 232 228 221 223 244 241 231 232 238 249 248 250 252
229 179 166 177 180 178 184 186 179 167 170 167 165 151 165 180 190 185 215 254 280 302 314 301 267 258 241 233 241 230 211 207 203 200 239 254 223 223 220 229 237 238 240
228 229 187 187 191 194 186 168 163 177 177 179 187 192 188 205 192 181 190 221 259 305 319 292 259 251 249 244 240 221 202 199 197 204 237 216 206 211 208 205 223 245 257
221 214 187 185 185 176 171 157 161 191 181 190 198 188 187 214 189 190 188 181 205 290 310 284 285 255 258 245 237 219 208 200 204 216 226 189 192 203 215 220 229 239 262
214 191 176 174 178 169 164 155 162 187 162 176 188 185 200 230 214 215 200 198 189 218 254 261 263 270 264 238 228 212 216 213 207 210 222 201 197 209 222 230 241 246 256
208 187 186 181 178 169 161 154 163 176 149 184 182 150 214 254 232 187 194 202 204 208 234 243 240 265 274 266 236 223 227 229 221 215 224 222 214 221 229 234 241 247 254
194 190 188 182 182 184 179 168 184 174 170 205 220 177 245 239 141 196 152 153 178 190 225 264 256 275 254 278 293 240 237 241 246 233 233 235 228 228 230 231 236 240 244
200 196 188 186 197 197 192 187 202 196 192 210 227 209 242 197 176 207 164 186 207 202 198 245 266 269 258 262 275 264 278 257 252 245 236 234 232 231 232 234 236 238 243
202 197 189 196 203 205 205 209 204 208 213 220 222 218 231 202 220 228 210 211 229 222 200 206 255 263 274 292 291 279 296 293 268 262 243 239 240 237 238 237 238 242 243
200 200 200 204 209 211 209 214 208 213 222 231 231 230 231 220 225 225 223 217 210 194 186 206 243 287 272 277 220 259 290 285 274 288 276 254 247 241 241 241 242 243 240
202 196 194 200 210 212 219 215 211 218 225 242 251 247 243 235 231 225 227 217 203 202 207 217 241 257 261 250 235 230 243 264 259 262 265 263 253 249 251 249 244 242 238
200 190 192 195 213 229 224 213 207 217 224 234 255 266 261 249 248 239 235 222 203 203 215 220 231 236 237 233 236 227 218 228 263 248 230 261 243 255 260 250 248 238 233
197 200 204 200 217 230 229 225 218 212 224 242 255 266 276 273 251 250 251 240 231 223 215 214 228 236 232 221 211 225 223 223 239 235 207 253 247 254 266 260 250 239 234
212 222 220 217 229 244 235 229 219 211 222 239 247 247 254 268 261 246 253 259 257 249 236 226 231 238 239 224 212 217 226 237 262 234 200 241 250 252 263 265 253 235 228
227 228 222 221 231 248 239 225 208 211 234 253 255 254 249 251 254 226 220 255 274 274 260 242 234 237 226 211 197 187 200 222 262 251 210 223 246 250 259 261 256 235 228
223 220 239 236 234 248 240 221 206 211 241 263 275 273 255 247 245 216 213 229 258 272 277 276 270 269 248 212 195 199 205 217 245 255 214 206 231 230 266 258 256 244 232
Height
1531 1531 1531 1532 1532 1532 1531 1531 1530 1531 1533 1534 1536 1537 1538 1539 1540 1540 1541 1542 1543 1543 1544 1545 1546 1547 1548 1548 1549 1550 1552 1553 1554 1555 1556 1557 1559 1560 1561 1562 1563 1565 1566
1532 1532 1532 1533 1533 1533 1533 1532 1532 1533 1534 1535 1536 1537 1538 1539 1539 1540 1541 1541 1542 1543 1544 1544 1545 1546 1547 1548 1548 1549 1551 1552 1553 1554 1555 1556 1557 1558 1559 1560 1561 1562 1564
1533 1533 1533 1533 1533 1533 1533 1533 1533 1534 1534 1535 1536 1537 1538 1538 1539 1540 1540 1541 1541 1542 1543 1543 1544 1545 1546 1547 1547 1548 1549 1550 1551 1552 1553 1554 1555 1556 1557 1558 1559 1560 1561
1533 1533 1533 1534 1534 1534 1534 1534 1534 1534 1535 1536 1536 1537 1537 1538 1538 1539 1539 1540 1540 1541 1542 1542 1543 1544 1545 1546 1546 1547 1548 1549 1550 1550 1551 1552 1552 1553 1554 1555 1556 1557 1558
1533 1533 1533 1534 1534 1534 1534 1534 1534 1534 1535 1535 1536 1536 1537 1537 1537 1538 1538 1539 1539 1540 1540 1541 1542 1543 1544 1544 1545 1545 1546 1547 1548 1548 1549 1550 1550 1551 1552 1553 1554 1554 1556
1533 1533 1533 1533 1533 1534 1534 1534 1534 1534 1535 1535 1535 1535 1536 1536 1537 1537 1537 1537 1538 1538 1539 1540 1540 1541 1542 1542 1543 1543 1544 1545 1546 1546 1547 1547 1548 1549 1549 1550 1551 1552 1553
1533 1533 1533 1533 1533 1533 1533 1533 1533 1534 1534 1535 1535 1535 1536 1536 1536 1536 1536 1536 1536 1537 1538 1538 1539 1539 1540 1541 1541 1542 1542 1543 1544 1544 1545 1545 1545 1546 1546 1547 1548 1549 1550
1532 1533 1533 1532 1532 1532 1533 1533 1533 1533 1533 1534 1535 1535 1535 1536 1535 1535 1535 1535 1535 1536 1536 1537 1537 1538 1538 1539 1539 1540 1540 1541 1541 1542 1542 1543 1543 1543 1543 1544 1544 1546 1546
1532 1532 1532 1532 1532 1532 1532 1532 1533 1533 1533 1533 1534 1535 1535 1534 1534 1535 1535 1535 1535 1535 1535 1535 1536 1536 1536 1537 1537 1538 1538 1539 1539 1539 1540 1540 1540 1540 1541 1541 1541 1542 1543
1532 1532 1532 1532 1532 1532 1532 1532 1532 1532 1532 1532 1533 1533 1534 1534 1534 1534 1534 1534 1534 1534 1534 1534 1534 1534 1535 1535 1535 1536 1536 1537 1537 1537 1537 1537 1538 1538 1538 1539 1539 1539 1540
1531 1531 1531 1531 1531 1531 1531 1531 1531 1531 1531 1532 1532 1532 1532 1532 1532 1532 1532 1532 1532 1532 1532 1532 1532 1533 1533 1533 1533 1533 1534 1534 1534 1534 1534 1535 1535 1535 1536 1536 1536 1537 1537
1529 1530 1530 1530 1530 1530 1530 1530 1530 1530 1531 1531 1531 1531 1531 1531 1531 1531 1531 1530 1530 1531 1531 1531 1530 1531 1531 1531 1531 1531 1531 1532 1532 1532 1532 1532 1533 1533 1533 1534 1534 1534 1534
1528 1528 1529 1529 1529 1529 1529 1529 1529 1529 1529 1529 1529 1529 1529 1530 1530 1530 1529 1529 1529 1529 1529 1529 1529 1529 1529 1529 1529 1529 1529 1530 1530 1530 1530 1530 1530 1531 1531 1532 1532 1532 1532
1527 1527 1527 1527 1527 1528 1528 1528 1528 1528 1528 1528 1528 1528 1528 1528 1528 1528 1528 1528 1527 1527 1527 1527 1527 1527 1527 1527 1527 1527 1527 1528 1528 1528 1528 1528 1528 1529 1529 1530 1530 1530 1530
1525 1525 1526 1526 1526 1526 1526 1526 1526 1526 1526 1526 1526 1526 1526 1526 1526 1526 1526 1526 1527 1525 1525 1525 1526 1526 1526 1526 1526 1525 1526 1526 1526 1526 1526 1526 1527 1527 1528 1528 1528 1528 1527
1523 1523 1524 1524 1524 1524 1525 1525 1525 1525 1525 1525 1524 1524 1524 1524 1524 1524 1524 1524 1524 1524 1523 1523 1524 1524 1524 1524 1524 1524 1524 1524 1524 1524 1525 1525 1525 1526 1526 1526 1526 1526 1525
1521 1521 1522 1522 1522 1523 1523 1523 1523 1523 1523 1523 1523 1523 1523 1523 1522 1522 1522 1522 1522 1522 1521 1521 1522 1522 1522 1522 1522 1522 1522 1522 1522 1523 1523 1523 1524 1524 1524 1524 1524 1524 1524
1519 1519 1520 1520 1520 1521 1521 1521 1521 1522 1522 1521 1521 1521 1521 1521 1521 1520 1520 1520 1520 1520 1519 1519 1519 1519 1520 1520 1520 1520 1520 1520 1521 1521 1521 1521 1521 1522 1522 1522 1522 1522 1522
1517 1517 1518 1518 1518 1519 1519 1519 1519 1519 1519 1519 1519 1519 1519 1519 1519 1518 1518 1517 1517 1517 1517 1517 1517 1517 1517 1517 1517 1517 1517 1518 1518 1519 1519 1518 1519 1519 1519 1520 1520 1520 1519
1514 1515 1515 1516 1516 1517 1517 1517 1517 1517 1517 1517 1517 1517 1517 1517 1516 1516 1516 1515 1515 1515 1515 1515 1514 1514 1515 1515 1515 1514 1515 1515 1516 1516 1516 1516 1516 1516 1517 1517 1517 1517 1517
1511 1512 1513 1513 1514 1514 1514 1514 1514 1514 1514 1514 1514 1514 1514 1514 1514 1513 1513 1513 1513 1512 1512 1512 1512 1512 1512 1512 1512 1512 1512 1512 1513 1513 1513 1513 1513 1513 1514 1515 1515 1515 1515
1509 1509 1509 1510 1511 1511 1511 1511 1511 1511 1511 1511 1511 1511 1511 1511 1511 1511 1511 1510 1510 1510 1509 1509 1509 1508 1508 1508 1509 1509 1509 1509 1509 1511 1510 1510 1510 1510 1511 1511 1512 1512 1512
1506 1506 1506 1507 1507 1507 1508 1508 1508 1508 1508 1508 1508 1508 1508 1508 1508 1507 1507 1507 1507 1506 1507 1506 1506 1505 1505 1505 1505 1505 1505 1506 1506 1507 1507 1507 1507 1507 1508 1508 1509 1509 1510
1503 1503 1503 1503 1504 1504 1504 1505 1505 1505 1504 1504 1504 1504 1504 1503 1504 1504 1503 1503 1503 1503 1503 1502 1502 1502 1502 1502 1502 1503 1503 1503 1503 1503 1504 1503 1503 1504 1504 1505 1505 1506 1506
1499 1500 1500 1500 1500 1500 1501 1501 1501 1501 1500 1500 1500 1500 1500 1500 1500 1500 1500 1499 1499 1499 1499 1499 1498 1498 1498 1498 1499 1499 1499 1499 1499 1499 1500 1500 1500 1500 1501 1501 1502 1502 1503
1496 1497 1497 1497 1497 1497 1497 1497 1497 1497 1496 1496 1496 1496 1496 1496 1496 1496 1496 1496 1495 1495 1495 1495 1495 1494 1494 1494 1495 1495 1495 1495 1495 1495 1496 1497 1497 1497 1497 1497 1498 1499 1499